This is the latest recevied weather packets stored in our database for station/object N2XP-2. If no packets are shown the sender has not sent any weather packets the latest 10 day(s).
| Time | Temp. | Humidity | Pressure | Rain* | Wind** | Luminosity | Snow |
|---|---|---|---|---|---|---|---|
| 1777698125 | 11.67° C | 82% | 1012.2 hPa | 0 mm | 1.34 m/s, 211° | - | - |
| 1777697885 | 11.67° C | 82% | 1012.2 hPa | 0 mm | 0.45 m/s, 188° | - | - |
| 1777697885 | 11.67° C | 82% | 1012.2 hPa | 0 mm | 1.34 m/s, 211° | - | - |
| 1777697638 | 11.67° C | 82% | 1012.2 hPa | 0 mm | 0.45 m/s, 188° | - | - |
| 1777697584 | 11.67° C | 82% | 1012.2 hPa | 0 mm | 0.45 m/s, 188° | - | - |
| 1777697414 | 12.22° C | 79% | 1011.8 hPa | 0 mm | 0 m/s | - | - |
| 1777697279 | 11.67° C | 81% | 1012.2 hPa | 0 mm | 0 m/s | - | - |
| 1777697253 | 11.67° C | 81% | 1012.3 hPa | 0 mm | 0.89 m/s, 219° | - | - |
| 1777696980 | 11.67° C | 81% | 1012.3 hPa | 0 mm | 0.89 m/s, 219° | - | - |
| 1777696681 | 11.67° C | 80% | 1012.3 hPa | 0 mm | 0.45 m/s, 238° | - | - |
| 1777696596 | 12.22° C | 80% | 1012.2 hPa | 0 mm | 0.89 m/s, 229° | - | - |
| 1777696375 | 12.22° C | 80% | 1012.2 hPa | 0 mm | 0.89 m/s, 229° | - | - |
| 1777696357 | 12.22° C | 79% | 1012 hPa | 0 mm | 0.45 m/s, 255° | - | - |
| 1777696101 | 12.22° C | 79% | 1011.8 hPa | 0 mm | 0 m/s | - | - |
| 1777696076 | 12.22° C | 79% | 1012 hPa | 0 mm | 0.45 m/s, 255° | - | - |
| 1777695777 | 12.22° C | 79% | 1011.8 hPa | 0 mm | 0 m/s | - | - |
| 1777695495 | 12.22° C | 77% | 1012.2 hPa | 0 mm | 0.45 m/s, 225° | - | - |
| 1777695484 | 12.22° C | 77% | 1012.2 hPa | 0 mm | 0.45 m/s, 233° | - | - |
| 1777695474 | 12.22° C | 78% | 1011.9 hPa | 0 mm | 0 m/s | - | - |
| 1777695175 | 12.22° C | 78% | 1012 hPa | 0 mm | 1.34 m/s, 183° | - | - |
| 1777694876 | 12.22° C | 78% | 1012.1 hPa | 0 mm | 0.45 m/s, 198° | - | - |
| 1777694574 | 12.22° C | 78% | 1012.2 hPa | 0 mm | 0 m/s | - | - |
| 1777694275 | 12.22° C | 77% | 1012.2 hPa | 0 mm | 0.45 m/s, 225° | - | - |
| 1777693976 | 12.22° C | 77% | 1012.2 hPa | 0 mm | 0.45 m/s, 219° | - | - |
| 1777693672 | 12.22° C | 77% | 1012.2 hPa | 0 mm | 0.45 m/s, 233° | - | - |
* Rain latest hour (hover to see other rain measurements)
** Current wind speed in m/s (hover to see current wind gust speed)